Theta_e
299 298 298 297 297 296 295 295 294 294 294 293 292 291 292 292 291 291 290 290 289 288 287 286 285 285 284 284 283 282 281 281 281 280 281 281 281 280 280 279 279 279 279 279 278 278 278 278 278 278 278 277 277 277 277 277 277 276 276 276 276 276
298 298 297 296 296 295 295 294 294 293 293 292 292 292 292 291 290 290 289 289 287 286 286 285 284 283 283 282 281 281 280 280 280 280 280 280 280 280 280 279 279 278 278 278 278 277 277 277 277 277 277 276 276 275 275 276 275 275 274 274 275 275
298 297 296 296 295 295 295 294 293 293 293 292 292 291 291 290 290 289 288 287 286 285 284 283 283 282 281 281 281 280 280 280 280 280 280 280 279 279 279 278 278 278 277 277 277 276 276 276 276 276 276 275 274 275 274 274 274 273 273 274 273 274
298 296 295 295 294 293 292 293 292 291 291 291 291 291 290 289 289 288 287 286 285 284 283 282 282 281 280 280 279 279 279 279 279 279 279 278 279 278 278 277 277 277 276 276 275 275 275 275 275 275 274 274 274 273 274 273 273 273 272 273 272 273
298 295 293 293 292 292 291 291 291 291 291 291 290 290 290 289 288 287 286 285 284 283 282 281 280 280 279 279 279 278 278 279 279 279 278 278 277 278 277 276 276 276 275 275 274 274 274 274 274 274 273 273 273 272 272 273 272 272 271 271 272 272
295 293 292 291 291 291 290 291 291 291 290 290 290 289 289 288 287 286 285 284 283 282 281 280 279 279 278 278 278 278 278 278 278 278 277 277 277 276 276 276 275 275 274 273 273 273 273 273 273 273 273 273 272 272 272 272 272 272 272 271 271 272
292 293 292 291 290 290 290 290 290 290 290 290 289 289 289 287 286 284 284 283 281 281 280 279 278 277 277 277 278 277 278 277 277 277 276 276 275 275 275 274 274 273 273 272 273 273 273 273 273 272 272 272 272 272 272 272 272 272 271 271 272 272
292 291 291 291 290 289 289 289 289 289 289 289 289 288 287 286 285 284 282 281 280 279 278 277 277 277 277 277 277 277 277 277 276 276 276 275 274 274 274 273 273 273 272 272 272 272 272 272 272 272 272 272 272 272 272 272 272 272 272 272 272 272
291 291 290 291 290 289 289 288 288 288 288 288 288 287 286 284 283 282 281 280 279 278 277 277 277 277 277 277 277 277 276 276 276 275 274 274 273 273 272 272 272 272 272 272 272 272 272 272 272 272 272 272 272 272 272 272 272 272 272 272 272 273
293 291 290 290 289 289 288 288 288 288 287 287 287 286 284 283 282 280 279 279 278 277 277 277 277 277 277 277 276 276 276 275 275 274 274 273 272 272 271 271 271 271 272 271 271 272 272 272 272 272 272 272 272 272 272 272 272 272 272 273 273 273
294 293 291 289 289 288 287 287 287 287 287 287 286 284 282 281 280 279 278 278 277 277 277 277 277 277 276 276 275 275 274 274 273 273 273 272 271 271 271 271 271 270 270 271 271 271 272 272 272 272 272 271 271 272 272 273 273 273 273 273 273 274
296 294 292 289 288 288 287 286 286 286 285 285 283 282 281 280 279 278 277 277 277 277 277 276 276 275 275 275 274 274 273 273 272 271 271 270 270 270 270 270 270 270 270 270 271 271 272 271 272 272 274 274 273 273 273 274 273 273 273 273 273 274
296 295 293 291 289 288 287 286 286 286 285 283 282 281 280 279 278 277 277 277 277 276 276 275 275 275 274 274 273 273 272 271 270 270 269 269 269 269 269 269 269 269 270 271 271 270 271 271 271 273 274 275 276 275 274 273 274 274 274 274 274 274
295 294 293 291 289 288 287 286 285 284 283 282 281 279 279 278 277 276 276 276 276 275 275 274 274 273 273 272 272 271 270 270 269 268 268 268 268 268 268 268 269 270 270 270 270 270 270 270 272 274 275 276 276 276 275 274 274 274 274 274 274 274
296 295 294 293 290 288 287 286 285 283 283 281 280 278 277 277 276 276 276 276 275 274 274 274 273 272 271 271 270 269 268 267 267 267 266 266 267 268 268 268 269 269 270 269 269 269 269 270 272 273 274 275 276 277 277 275 275 274 274 274 274 274
298 296 295 293 291 289 288 286 285 284 282 280 278 277 276 276 276 276 275 274 274 273 273 272 272 271 270 269 268 267 267 266 266 267 267 267 267 267 267 268 268 268 268 269 268 268 269 269 271 273 274 276 276 277 277 275 275 274 274 274 274 274
299 296 293 291 289 288 286 285 284 281 279 278 277 276 276 276 275 275 274 273 273 272 272 271 270 269 269 267 267 266 266 266 266 266 266 267 267 267 267 267 268 268 268 267 267 267 267 268 271 273 275 275 276 277 277 274 274 273 273 274 274 274
298 295 293 290 289 286 285 284 282 280 278 277 276 275 275 275 275 274 273 272 272 271 271 270 269 268 267 266 266 265 266 266 266 266 267 267 267 267 267 267 267 267 266 266 266 266 266 268 271 273 274 275 276 277 274 273 273 273 273 273 274 274
297 294 292 289 287 285 284 282 281 279 277 275 275 274 274 275 274 273 273 272 271 270 270 269 268 267 266 266 265 265 265 265 266 266 266 266 266 266 266 266 266 266 266 266 266 266 266 266 269 272 274 275 276 275 273 273 272 272 272 273 273 274
294 292 291 288 286 285 284 281 280 277 275 274 274 274 273 273 273 272 272 271 270 269 269 268 267 267 266 265 265 265 265 266 266 265 266 265 265 265 266 266 265 266 266 266 265 266 265 266 269 273 274 275 275 275 273 272 272 272 272 273 273 274
292 290 288 287 285 284 282 280 278 275 275 274 273 273 273 273 273 272 271 270 269 268 267 267 267 266 266 265 265 265 265 265 265 265 265 265 265 265 265 265 265 265 265 266 266 267 267 267 269 272 273 274 275 274 273 272 272 271 272 272 272 274
288 287 286 285 285 283 280 279 276 275 274 273 273 272 272 272 272 271 270 269 268 267 266 266 266 265 265 264 264 264 264 265 264 264 264 264 265 264 265 265 264 264 264 265 266 267 268 268 268 270 273 274 275 275 273 272 271 271 271 272 272 272
288 287 286 286 284 280 279 278 276 275 274 272 272 271 272 272 271 270 269 267 266 265 265 265 265 264 264 264 263 263 263 264 264 264 263 263 264 264 264 263 263 263 264 266 267 267 268 268 269 270 273 274 274 275 275 272 272 272 272 272 272 272
286 285 284 283 281 279 278 277 276 275 273 272 271 272 272 271 269 268 267 266 265 264 263 263 263 263 262 262 262 262 262 264 264 263 262 263 263 262 261 262 263 264 265 266 267 268 268 270 271 270 272 273 274 275 276 273 273 274 273 272 271 271
284 284 282 280 278 278 277 276 275 274 273 272 272 272 271 269 268 267 265 264 263 262 262 262 261 261 261 261 262 262 262 262 261 261 262 262 262 262 262 263 264 264 265 266 267 268 268 269 269 271 270 272 274 275 276 276 275 276 274 271 270 270
283 282 281 278 276 276 277 276 275 274 272 272 272 271 268 267 266 265 263 262 261 261 261 261 261 261 261 261 261 261 262 262 261 261 262 262 263 264 263 264 265 265 265 265 266 267 268 268 269 270 271 271 274 275 276 276 276 276 273 272 270 270
283 281 278 276 275 275 275 276 276 273 272 272 270 268 266 265 264 263 262 261 260 260 260 260 260 260 260 261 261 260 261 261 261 261 263 262 264 264 263 264 265 264 265 265 265 266 267 268 268 268 270 272 273 275 275 276 276 275 275 271 270 270
282 279 277 274 273 273 274 275 276 273 273 270 268 266 265 263 262 261 260 260 259 259 259 259 259 260 260 260 261 261 262 261 262 263 263 263 263 263 263 263 264 265 265 265 265 266 266 267 267 268 269 270 272 273 274 274 275 274 274 273 270 273
280 278 276 273 272 272 273 274 275 274 270 267 266 265 263 262 261 260 259 259 259 259 259 259 259 259 259 260 261 262 262 262 263 263 263 263 263 263 263 264 265 265 265 265 265 265 266 266 267 267 268 270 271 271 271 271 271 272 272 270 269 271
279 278 275 273 271 271 272 273 273 270 267 266 264 263 262 261 261 259 259 259 259 258 259 260 260 259 259 260 261 261 262 262 263 263 263 264 264 263 264 264 264 265 265 264 265 265 265 265 266 267 268 270 270 270 271 270 270 269 268 268 269 269
279 278 274 273 271 270 270 271 271 267 266 265 263 262 261 261 260 260 259 259 258 259 260 261 260 261 260 260 261 262 263 262 262 263 264 265 265 265 265 265 265 266 266 265 265 264 264 265 265 267 272 271 273 271 270 269 269 269 268 270 273 268
278 276 274 272 270 269 270 270 267 265 265 263 262 262 261 260 260 259 259 259 259 259 260 260 260 261 261 260 260 261 261 264 266 265 264 264 267 268 269 269 266 267 267 266 266 267 265 265 267 272 273 273 273 273 273 273 272 272 270 272 272 268
277 276 273 271 269 268 269 268 265 264 263 262 262 262 261 260 259 259 259 259 259 259 260 260 260 261 261 261 261 261 261 261 264 268 268 267 267 268 268 269 268 269 269 268 266 267 270 270 272 272 272 272 272 273 273 272 271 271 271 272 267 263
275 274 273 271 268 268 268 265 264 262 261 261 262 262 261 261 260 259 259 260 260 260 260 260 260 260 260 261 262 262 262 262 262 264 268 268 267 268 268 268 268 268 268 269 269 268 267 269 271 272 272 272 272 272 272 271 271 270 271 270 268 261
276 275 273 270 267 267 267 264 263 261 261 261 262 262 261 262 261 260 260 260 260 260 261 261 261 261 261 261 261 261 262 263 262 262 263 266 267 267 268 267 267 268 268 268 268 269 269 270 271 271 271 271 271 271 271 270 269 269 270 268 262 260
277 275 271 268 267 267 265 263 262 260 260 260 262 262 262 262 262 261 261 260 260 261 261 261 261 261 261 261 261 262 262 261 262 262 262 261 261 263 266 266 265 266 266 267 267 268 269 269 270 270 270 270 270 270 270 268 265 267 268 266 260 260
275 272 269 267 266 265 264 262 261 260 260 261 261 262 262 263 262 262 261 260 261 261 261 262 262 261 261 261 260 259 259 258 258 258 259 259 259 259 259 258 259 262 265 264 264 266 268 269 269 270 269 269 269 269 268 265 261 259 260 260 260 260
273 271 268 266 265 264 263 261 260 260 260 261 261 262 263 263 262 262 261 261 261 262 262 262 261 261 260 260 260 259 258 258 257 257 257 256 256 256 256 256 257 256 260 263 264 265 266 268 269 269 268 268 268 267 265 258 258 258 258 258 259 259
Wind_Speed
11 12 12 12 12 12 13 12 13 12 13 14 17 20 18 17 15 15 13 14 10 10 13 13 12 10 9 8 8 7 7 7 7 7 6 5 5 5 5 6 6 6 7 7 8 8 8 8 8 8 8 8 8 8 8 8 9 9 10 10 10 10
11 12 12 12 13 12 11 13 11 14 14 15 16 15 14 15 15 15 15 13 10 11 11 11 11 10 10 9 9 8 8 7 7 7 6 6 5 5 6 6 6 6 7 7 7 8 8 8 8 8 8 8 8 8 8 8 9 10 11 11 10 9
11 10 9 9 9 9 9 11 13 13 12 14 16 18 16 16 14 13 12 11 11 13 13 12 11 12 10 10 9 8 8 7 7 7 6 6 7 6 6 7 7 7 7 8 8 9 8 8 8 7 8 8 9 9 9 10 10 11 11 11 12 12
7 7 8 7 8 9 10 10 10 12 14 13 15 15 14 14 14 13 12 11 11 14 13 13 11 11 10 10 9 9 8 7 7 7 7 7 6 6 7 7 6 6 7 8 9 9 9 9 9 8 8 8 9 10 8 9 10 11 12 11 12 12
8 8 9 9 11 11 11 11 11 12 13 13 15 15 14 13 12 11 11 11 13 13 13 12 11 11 11 11 9 9 9 8 8 7 7 7 6 6 6 6 7 7 7 8 9 9 9 9 9 8 8 8 9 10 10 10 11 12 12 12 13 13
7 7 9 11 12 12 14 12 11 11 12 13 13 15 14 13 12 12 12 12 13 14 13 12 12 13 12 11 9 10 9 8 8 7 7 7 6 6 6 6 6 7 7 8 9 9 9 9 8 8 8 9 10 10 11 11 11 12 12 13 13 13
8 8 8 8 9 9 11 11 12 12 13 13 14 14 13 12 11 12 12 13 15 14 13 13 12 12 12 11 9 10 10 9 8 7 7 7 6 6 6 6 6 7 7 8 8 8 8 8 8 8 9 9 10 10 11 11 12 12 12 13 13 13
7 5 7 8 10 11 11 11 11 12 12 13 12 13 13 12 11 13 13 13 14 13 14 13 12 13 12 11 10 11 10 9 8 7 7 7 7 6 6 6 6 6 7 8 8 8 8 8 8 9 9 10 10 10 11 11 12 12 12 13 13 13
8 11 10 10 10 10 10 11 12 12 12 14 13 13 12 12 13 13 13 13 13 13 14 13 12 12 12 11 10 9 9 9 8 8 7 6 6 6 6 6 6 6 7 8 8 8 8 8 8 9 9 10 10 11 11 11 12 12 11 12 14 16
11 10 11 11 10 11 10 11 11 13 13 14 14 13 12 10 13 13 13 13 12 12 13 12 12 11 10 10 9 9 9 8 8 7 6 6 6 6 6 6 6 7 7 7 7 8 7 8 8 8 9 10 10 10 10 10 12 14 15 16 16 16
15 16 12 11 10 12 13 11 12 11 11 12 12 11 11 12 12 13 13 12 12 12 12 11 10 10 10 10 9 9 8 8 7 7 6 6 5 4 5 5 6 7 8 8 8 8 7 7 7 7 7 7 9 9 11 12 14 14 16 16 16 17
18 17 15 12 11 12 11 11 12 13 13 13 11 11 11 12 12 13 12 12 11 11 11 11 9 10 10 9 9 8 8 7 7 6 6 5 5 5 5 5 6 7 8 7 7 7 6 7 6 9 14 13 10 12 12 13 14 15 14 16 17 17
18 17 16 14 13 13 12 11 10 10 11 11 12 12 11 12 12 11 12 11 11 11 11 11 10 10 10 9 8 6 8 7 6 5 5 4 5 5 5 6 8 8 6 6 6 7 7 6 6 13 15 16 19 14 13 13 14 14 15 16 15 16
16 17 17 15 15 12 10 11 11 12 12 12 12 12 12 11 11 12 12 12 12 12 12 10 11 10 10 8 7 7 6 5 5 5 5 4 5 5 5 7 7 6 5 5 5 7 7 7 10 15 16 17 18 17 13 13 13 13 14 14 16 17
13 16 17 16 14 13 12 12 11 13 13 13 12 11 12 12 12 12 13 12 12 12 12 11 11 9 9 8 8 7 6 6 5 5 5 5 5 4 5 7 6 5 5 5 6 7 7 8 12 15 17 18 18 19 18 13 13 14 14 17 17 16
9 11 14 15 14 14 12 14 13 11 10 10 11 12 12 12 11 11 12 10 11 11 11 10 10 9 9 8 8 7 7 6 6 5 5 4 4 5 6 6 6 5 5 5 5 6 7 9 11 16 17 18 19 19 18 13 15 15 16 16 16 18
10 9 9 9 10 10 10 7 9 9 10 10 10 9 10 9 11 8 8 9 10 9 9 10 9 9 9 8 8 7 7 6 6 6 5 4 5 6 6 5 5 4 4 5 5 5 7 8 14 16 17 17 19 20 19 13 13 14 14 15 18 18
8 7 9 8 9 9 10 9 10 13 13 14 17 16 17 15 14 12 10 10 10 9 10 9 10 9 9 9 8 8 7 7 6 6 5 4 4 5 5 4 4 4 5 5 5 6 7 9 14 16 16 18 18 21 13 12 14 14 15 18 17 18
4 6 6 9 12 12 13 13 16 16 16 15 15 15 14 14 14 10 11 10 10 10 10 10 10 9 9 9 9 8 7 7 7 5 4 5 5 5 5 4 4 4 4 5 6 6 7 8 12 15 17 18 20 17 12 13 13 14 17 17 18 17
3 5 9 12 14 15 12 14 15 14 13 14 15 14 11 11 11 10 10 10 10 10 10 9 9 10 10 9 9 8 7 6 5 5 5 5 5 5 5 4 3 4 4 5 6 6 7 8 11 15 16 17 19 18 13 13 13 15 15 16 16 14
6 6 8 11 12 12 13 15 16 17 18 17 15 12 13 12 11 12 11 11 11 10 9 9 9 10 10 9 8 8 8 7 6 5 5 5 4 4 4 3 3 3 3 4 6 10 10 8 9 14 15 17 18 16 12 12 13 13 14 15 17 19
8 8 11 14 16 14 17 15 18 21 20 18 19 19 19 20 20 11 9 10 10 9 9 9 9 9 9 9 9 7 6 6 5 5 5 5 4 4 3 2 2 3 4 5 6 6 6 7 7 9 16 16 18 19 14 12 11 14 16 17 17 15
10 13 15 13 13 16 16 17 18 18 19 20 18 24 20 17 16 13 10 10 10 10 10 8 9 10 8 8 8 7 6 5 5 6 5 5 4 3 2 2 2 3 5 4 5 5 6 6 8 9 15 16 17 20 19 11 12 13 15 15 16 14
7 6 2 4 11 14 16 18 19 18 19 18 19 16 11 16 13 11 10 11 10 10 9 9 9 8 8 8 7 7 6 5 5 5 5 5 4 4 3 2 2 2 3 4 5 5 5 6 10 10 13 16 18 19 22 14 13 16 15 15 14 17
9 8 7 7 11 14 17 18 19 20 19 25 18 11 13 11 12 11 10 11 11 9 9 9 10 8 7 7 7 7 7 6 5 5 5 4 4 4 3 3 2 2 3 4 4 3 4 5 7 12 12 16 19 21 21 22 19 24 17 14 15 18
7 8 8 10 12 14 18 20 19 18 21 18 10 12 14 13 10 11 12 11 10 11 9 9 9 8 7 7 7 6 6 6 5 5 5 5 4 3 2 1 1 2 3 3 4 4 5 6 6 10 14 14 20 20 21 22 24 24 15 16 16 16
14 11 10 11 15 16 18 18 19 19 21 9 12 13 15 13 16 13 12 11 10 10 10 9 8 8 8 7 7 7 6 6 6 5 5 5 4 3 2 1 1 2 2 3 4 5 6 6 7 8 11 18 19 20 21 23 24 23 25 16 13 16
9 11 13 12 13 15 16 16 15 21 15 15 15 11 13 15 15 13 13 11 10 10 10 11 9 8 9 9 7 7 6 7 7 6 6 5 4 4 3 1 1 1 2 3 4 5 6 7 7 8 10 12 13 16 20 23 22 23 24 22 17 23
11 13 15 16 11 11 14 18 13 12 16 20 12 13 14 21 16 13 11 12 11 10 10 11 9 8 8 7 6 5 5 6 5 5 5 5 5 4 3 2 1 1 2 3 4 5 6 6 7 8 9 8 10 11 12 14 14 19 19 14 12 15
15 16 15 15 14 14 14 16 14 14 18 14 15 17 18 18 14 14 12 12 10 9 9 8 11 10 7 7 7 7 6 5 5 5 6 6 6 5 4 2 1 1 2 3 4 5 6 6 7 8 8 9 11 11 11 11 11 12 11 12 13 14
16 15 15 16 13 15 14 17 14 16 15 15 19 22 16 12 12 12 13 11 9 9 9 8 9 8 8 7 6 5 6 6 6 6 5 5 4 5 4 2 1 1 2 3 4 4 5 6 7 7 13 13 16 15 14 12 13 13 11 16 24 16
12 13 15 13 13 15 17 16 15 14 11 16 13 14 15 16 12 11 11 10 10 10 9 8 8 7 8 8 7 6 3 4 8 6 6 6 9 7 3 3 3 1 1 2 3 3 4 5 7 15 18 18 19 20 21 20 20 19 17 21 25 17
14 12 12 13 15 17 18 18 15 18 19 16 16 15 15 16 12 10 11 11 9 11 9 9 8 7 7 7 7 7 7 6 7 9 9 8 7 5 5 4 2 1 2 1 1 3 8 10 13 16 16 18 18 20 20 20 19 19 21 23 17 11
12 15 19 15 18 19 17 18 18 21 15 13 14 14 15 14 14 13 11 10 10 11 10 9 9 9 8 7 7 7 8 8 8 7 8 8 5 7 7 5 4 4 3 3 3 3 4 8 12 15 16 17 18 19 20 20 20 19 20 20 19 9
17 17 15 15 19 18 18 21 19 19 15 11 13 14 14 14 12 13 12 10 11 11 11 9 9 8 9 8 8 6 6 7 8 9 8 6 5 5 6 5 5 5 5 5 6 7 9 9 12 15 15 17 18 19 20 20 19 19 21 18 11 8
15 13 14 17 22 22 19 20 22 22 18 13 12 13 14 16 12 13 13 11 13 12 9 9 9 9 8 7 7 6 5 4 6 7 8 7 3 3 4 2 2 6 7 7 7 9 10 11 12 13 14 16 17 18 19 18 11 15 18 16 10 10
11 12 16 21 21 20 24 26 23 21 12 15 14 14 12 17 14 9 18 28 18 8 10 8 9 7 7 6 6 6 5 6 6 7 7 6 7 5 3 0 2 5 6 5 5 9 10 10 12 13 14 14 15 16 16 13 9 11 11 10 8 8
13 14 15 18 18 22 26 24 20 17 14 15 16 16 14 18 13 10 10 10 13 9 8 7 7 7 7 7 6 5 6 6 6 6 6 6 5 5 3 2 0 1 6 6 6 10 11 11 12 13 12 12 14 15 14 9 9 8 9 9 9 9
Wind_Direction
197 195 197 197 198 193 193 187 183 184 189 189 188 189 188 180 177 175 175 172 170 165 164 164 164 164 167 167 166 168 178 186 192 199 205 206 211 213 218 226 234 238 246 247 254 258 261 264 264 264 264 262 265 267 268 268 267 267 269 267 266 268
206 198 193 194 194 192 189 184 181 187 189 185 190 187 181 176 175 174 173 168 151 150 153 159 159 159 162 165 164 175 181 188 193 198 204 208 209 217 219 227 232 241 244 248 252 257 258 259 259 259 259 263 263 266 268 269 267 266 268 269 267 267
197 195 192 191 189 189 181 186 186 185 185 186 184 186 180 176 172 163 164 152 150 151 157 159 159 160 160 161 168 174 182 187 191 198 202 204 212 210 218 223 230 235 239 247 251 253 255 258 260 258 258 259 262 263 265 268 266 266 266 266 267 264
175 176 176 173 179 187 186 185 176 179 186 184 184 186 179 171 168 165 158 153 153 158 156 156 156 158 159 163 167 176 179 184 189 192 196 208 210 211 219 222 226 234 240 244 248 250 253 255 256 257 256 258 263 265 263 264 265 265 265 264 264 264
181 171 172 180 189 190 186 184 185 185 184 178 185 184 182 170 163 155 148 151 155 158 154 154 158 158 162 166 170 178 180 182 188 188 197 204 206 210 213 220 225 232 237 244 247 251 253 255 256 256 255 259 262 265 264 263 264 265 266 265 264 265
157 168 180 188 194 195 197 192 185 183 184 184 182 188 176 160 157 153 152 153 155 155 154 158 157 159 164 167 173 175 181 181 184 188 195 201 206 209 215 216 227 234 240 244 248 248 252 254 255 259 258 260 262 264 266 265 264 264 266 266 267 267
182 189 191 189 194 195 198 194 188 186 186 182 185 185 169 156 151 152 155 155 154 156 157 158 159 162 167 169 171 176 178 181 178 185 192 195 205 209 215 224 225 236 240 244 247 251 255 258 258 262 262 262 263 264 266 267 267 266 267 267 268 267
181 180 198 198 197 197 193 189 189 188 184 189 182 175 164 156 153 157 157 158 156 159 160 160 161 165 166 167 168 173 175 176 180 182 185 195 205 210 218 224 234 233 242 247 252 255 259 263 262 263 264 265 265 266 266 267 267 268 269 269 270 267
188 208 205 200 195 188 190 189 189 187 186 185 180 175 160 157 157 159 159 158 157 158 162 161 162 162 164 165 166 166 172 175 178 180 186 192 199 209 219 227 232 238 242 249 251 256 260 264 264 265 266 266 269 270 271 275 275 275 274 274 276 280
213 207 209 198 191 187 188 192 188 185 185 182 178 167 156 154 156 158 158 157 158 160 161 159 156 158 156 158 160 163 166 168 173 177 183 188 199 211 222 228 234 242 244 250 252 256 262 264 263 266 267 269 272 276 276 278 280 284 282 280 275 272
224 222 207 193 183 187 190 186 185 181 183 176 173 159 155 150 152 156 157 158 159 160 155 148 149 148 150 152 157 161 166 167 172 173 179 185 199 214 222 233 240 246 249 249 254 259 262 263 265 263 263 268 277 279 284 286 285 284 284 281 279 278
234 231 219 192 181 191 185 182 183 182 176 173 162 155 150 150 157 155 154 159 156 147 144 142 137 145 144 151 158 164 163 167 168 170 179 191 204 216 224 233 244 244 246 253 257 263 266 266 263 263 268 272 278 286 288 289 287 286 282 282 283 279
235 235 228 212 194 189 185 180 175 171 169 164 159 153 153 152 152 153 154 153 146 143 142 140 144 145 149 155 157 159 159 163 163 167 179 191 206 218 227 235 240 241 244 249 261 270 268 267 267 272 277 282 287 290 292 290 289 286 286 284 283 284
230 230 229 219 204 189 170 170 169 167 172 160 158 154 150 148 146 149 152 150 145 145 142 142 145 146 150 150 157 155 153 155 156 168 181 196 206 218 225 236 239 242 251 256 265 269 271 272 273 281 286 290 293 295 293 292 291 290 287 287 289 290
229 226 227 222 206 192 176 162 158 172 169 161 157 138 148 152 154 151 151 149 147 147 148 146 146 146 147 152 152 150 148 153 162 177 188 201 207 218 230 235 239 242 251 259 262 268 274 276 281 286 291 296 298 300 299 293 291 290 289 293 291 292
239 226 224 218 203 188 171 170 171 165 151 138 136 147 153 150 152 151 151 141 143 142 141 139 139 144 147 146 145 146 149 161 175 182 190 192 204 224 235 236 241 245 249 257 269 276 277 278 281 289 296 302 304 304 304 298 297 295 292 290 291 291
256 235 217 204 180 157 151 145 134 123 129 141 145 147 141 132 139 122 129 132 138 137 137 137 141 141 144 142 145 148 156 164 172 181 190 194 209 220 227 231 231 242 246 262 268 269 274 272 280 292 302 306 308 308 310 304 299 295 291 290 289 288
258 223 207 179 151 143 148 156 142 141 148 149 158 159 162 154 143 142 142 144 145 145 144 139 142 141 141 143 147 151 160 168 177 179 187 197 216 227 233 237 240 249 254 257 264 270 277 279 288 300 307 311 312 313 311 305 301 298 295 293 291 292
238 205 171 156 167 156 171 156 159 158 156 163 167 164 152 144 145 147 152 150 142 142 143 144 142 141 141 147 149 157 164 167 175 179 181 197 216 221 223 227 242 245 255 261 260 268 276 282 291 303 311 312 314 316 310 307 303 299 296 292 294 291
179 169 171 171 178 180 168 159 160 156 151 155 141 144 151 154 159 154 149 147 144 140 141 143 140 142 143 148 154 157 160 161 167 174 187 197 212 219 216 226 241 248 248 257 263 269 278 282 291 303 310 312 312 314 312 309 305 300 296 295 292 296
184 174 168 169 181 178 159 157 157 157 160 154 158 158 157 172 163 159 156 149 142 139 134 134 138 141 146 147 152 151 156 163 167 169 179 209 217 222 219 221 241 251 266 260 264 271 278 280 288 301 307 310 312 314 311 308 306 297 297 299 302 303
131 160 176 186 192 164 160 161 160 166 163 165 155 167 177 177 159 131 120 124 129 128 132 136 136 136 138 143 139 145 150 151 156 172 192 205 210 213 218 220 240 267 273 273 265 267 277 287 292 296 305 311 313 314 312 308 302 303 305 307 306 304
183 193 196 197 168 163 164 160 163 172 166 150 165 189 179 138 119 130 132 127 126 127 130 130 134 133 131 133 137 140 146 156 164 177 189 201 214 200 214 221 251 263 265 272 274 275 282 281 293 299 307 310 312 314 315 306 305 306 306 306 306 307
204 212 49 136 159 162 163 163 175 170 160 164 189 186 125 130 139 130 128 134 128 125 123 125 123 117 123 127 135 139 151 161 164 174 184 204 188 188 203 224 242 259 278 281 282 279 286 301 305 306 308 311 312 313 313 310 307 310 311 310 308 308
197 183 154 139 164 169 170 171 178 180 176 188 186 125 128 130 126 125 123 119 119 115 115 117 123 125 127 135 142 146 151 154 159 183 194 192 185 187 195 217 227 262 279 282 289 295 304 309 309 309 310 311 314 314 314 315 315 316 316 312 308 309
188 183 176 167 167 174 177 176 183 184 181 187 117 119 111 119 118 117 115 112 115 117 115 118 123 124 130 136 143 152 154 161 167 185 190 191 189 171 178 196 216 274 275 295 308 309 311 314 312 312 311 312 314 315 318 321 320 320 319 315 310 308
191 183 176 176 174 184 188 188 183 181 178 147 124 136 132 127 124 122 122 120 121 122 126 128 131 135 137 145 153 154 159 165 175 184 180 182 177 159 162 190 232 269 294 305 308 313 316 313 314 313 311 312 311 319 323 324 324 325 323 318 312 308
181 177 183 178 184 183 190 193 180 181 161 123 129 129 126 130 129 128 126 124 127 129 131 132 136 142 148 156 160 163 163 166 183 182 173 173 163 160 163 184 218 270 303 306 307 309 314 316 312 309 304 296 308 324 326 327 329 326 323 321 313 312
186 195 191 187 177 167 175 186 190 151 122 145 133 136 134 129 128 129 132 132 131 133 141 142 147 148 152 160 158 162 163 170 184 173 168 165 157 158 160 179 207 296 300 300 308 311 313 314 313 311 300 303 322 327 327 330 329 327 326 322 314 322
199 202 194 197 175 157 166 177 176 151 130 126 135 128 134 137 148 142 139 137 134 139 147 145 143 145 149 163 161 159 167 180 185 176 173 167 162 154 158 152 183 259 294 300 309 308 316 314 314 309 310 325 332 331 332 330 329 330 330 324 325 334
203 201 193 198 171 161 161 176 161 148 147 146 140 144 141 143 135 128 130 134 132 137 145 142 152 156 152 155 159 165 169 173 178 173 152 146 143 153 145 154 200 240 267 296 295 309 310 314 311 305 324 332 335 338 338 338 339 336 333 334 340 337
203 198 201 192 166 168 174 175 158 146 143 138 144 146 142 143 135 131 138 139 141 145 144 144 151 152 146 147 150 151 156 197 187 167 160 161 176 175 186 179 169 210 261 273 291 301 298 300 302 320 333 338 341 342 343 343 342 339 339 342 346 341
204 201 196 185 172 175 176 165 151 150 146 151 157 157 147 143 139 141 140 150 154 153 145 144 146 150 147 148 151 158 158 161 180 180 156 149 148 150 145 121 114 11 333 298 250 308 318 312 322 333 340 343 346 346 347 345 345 344 345 350 353 342
197 196 203 185 174 176 175 165 152 155 147 156 163 163 156 150 146 150 153 147 144 146 145 142 145 145 145 148 159 164 162 161 152 164 174 157 140 144 135 121 79 42 44 21 12 359 324 330 335 343 348 350 351 352 351 348 349 349 352 354 354 341
203 205 195 174 176 174 175 169 167 157 150 157 158 166 158 157 142 135 143 145 143 145 143 141 145 146 146 152 159 164 169 160 156 150 156 162 141 142 138 90 64 40 43 28 20 4 354 349 348 352 355 358 358 357 356 353 349 353 356 357 356 352
207 198 179 176 176 177 172 161 161 161 156 152 158 167 164 156 144 138 143 144 149 142 147 147 147 144 145 151 153 156 153 149 142 141 142 148 144 154 171 180 32 32 30 21 18 3 358 353 353 358 2 3 2 359 358 357 344 349 357 3 354 344
196 185 182 177 176 173 165 167 161 147 143 157 157 157 155 153 141 124 155 155 151 131 143 140 140 134 131 136 141 144 142 135 134 133 143 148 150 153 158 230 323 350 16 17 5 353 352 349 354 3 6 6 4 4 357 351 356 358 351 352 351 339
191 190 177 171 174 176 173 169 153 150 158 158 157 160 151 148 142 140 137 142 146 126 123 122 124 129 136 144 144 139 132 133 140 141 135 133 131 141 149 181 194 322 316 337 359 353 347 344 354 360 4 7 8 10 9 12 3 349 348 342 338 334